Topeka, KS

8:19 AM CST on November 13, 2019 (GMT -0600)
Billard Municipal

Weather History for KTOP - September, 2019

Change the Weather History Date:

Monday, September 30, 2019

  Actual Average Record
Temperature  
Mean Temperature 83 °F 62 °F  
Max Temperature 89 °F 74 °F 97 °F (1938)
Min Temperature 76 °F 50 °F 29 °F (1984)
Degree Days  
Heating Degree Days 0 5  
Month to date heating degree days 0 64  
Since 1 July heating degree days 0 67  
Cooling Degree Days 18 2  
Month to date cooling degree days 343 165  
Year to date cooling degree days 1589 1393  
Growing Degree Days 32 (Base 50)    
Moisture  
Dew Point 69 °F    
Average Humidity 64    
Maximum Humidity 76    
Minimum Humidity 52    
Precipitation  
Precipitation 0.00 in 0.11 in 1.78 in (1904)
Month to date precipitation 2.50 3.66  
Year to date precipitation 43.39 30.23  
Snow  
Snow 0.00 in 0.00 in 0.00 in ()
Month to date snowfall 0.0 0.0  
Year to date snowfall 18.5 11.3  
Since 1 July snowfall T 0.0  
Snow Depth 0.00 in    
Sea Level Pressure  
Sea Level Pressure 29.88 in    
Wind  
Wind Speed 15 mph (South)    
Max Wind Speed 24 mph    
Max Gust Speed 36 mph    
Visibility 10 miles    
Events      
T = Trace of Precipitation, MM = Missing Value Source: NWS Daily Summary

Daily Weather History Graph

Daily Weather History Graph

Search for Another Location

Airport or City:

Astronomy

Sep. 30, 2019 Rise Set
Actual Time 7:17 AM CDT 7:06 PM CDT
Civil Twilight 6:50 AM CDT 7:33 PM CDT
Nautical Twilight 6:19 AM CDT 8:04 PM CDT
Astronomical Twilight 5:48 AM CDT 8:35 PM CDT
Moon 9:21 AM CDT (9/30) 8:44 PM CDT (9/30)
Length of Visible Light 12h 42m
Length of Day
11h 49m
Waxing Crescent, 6% of the Moon is Illuminated
Sep 30
Waxing Crescent
Oct 5
First Quarter
Oct 13
Full
Oct 21
Last Quarter
Oct 27
New

Hourly Weather History & Observations

Time (CDT) Temp. Heat Index Dew Point Humidity Pressure Visibility Wind Dir Wind Speed Gust Speed Precip Events Conditions
12:53 AM 77.0 °F - 70.0 °F 79% 29.90 in 10.0 mi SSE 8.1 mph - N/A   Clear
1:53 AM 77.0 °F - 69.1 °F 76% 29.91 in 10.0 mi South 8.1 mph - N/A   Clear
2:53 AM 77.0 °F - 68.0 °F 74% 29.90 in 10.0 mi South 11.5 mph - N/A   Clear
3:53 AM 77.0 °F - 68.0 °F 74% 29.90 in 10.0 mi South 12.7 mph - N/A   Clear
4:53 AM 75.9 °F - 66.9 °F 74% 29.90 in 10.0 mi South 10.4 mph 18.4 mph N/A   Clear
5:53 AM 77.0 °F - 66.9 °F 71% 29.89 in 10.0 mi South 16.1 mph 23.0 mph N/A   Clear
6:53 AM 75.9 °F - 66.9 °F 74% 29.91 in 10.0 mi South 12.7 mph 21.9 mph N/A   Clear
7:53 AM 75.9 °F - 66.9 °F 74% 29.91 in 10.0 mi South 13.8 mph - N/A   Partly Cloudy
8:53 AM 77.0 °F - 66.9 °F 71% 29.91 in 10.0 mi South 17.3 mph 26.5 mph N/A   Clear
9:53 AM 80.1 °F 82.7 °F 68.0 °F 67% 29.92 in 10.0 mi South 17.3 mph 31.1 mph N/A   Clear
10:53 AM 84.0 °F 87.0 °F 68.0 °F 58% 29.90 in 10.0 mi South 18.4 mph 28.8 mph N/A   Clear
11:53 AM 86.0 °F 90.1 °F 69.1 °F 57% 29.90 in 10.0 mi SSW 20.7 mph 28.8 mph N/A   Clear
12:53 PM 88.0 °F 92.9 °F 70.0 °F 55% 29.89 in 10.0 mi South 16.1 mph 24.2 mph N/A   Clear
1:53 PM 88.0 °F 92.9 °F 70.0 °F 55% 29.87 in 10.0 mi South 17.3 mph - N/A   Clear
2:53 PM 87.1 °F 91.3 °F 69.1 °F 55% 29.86 in 10.0 mi South 15.0 mph 24.2 mph N/A   Clear
3:53 PM 89.1 °F 93.7 °F 69.1 °F 52% 29.85 in 10.0 mi South 16.1 mph 29.9 mph N/A   Clear
4:53 PM 88.0 °F 91.4 °F 68.0 °F 51% 29.84 in 10.0 mi South 16.1 mph 25.3 mph N/A   Clear
5:53 PM 84.9 °F 88.8 °F 69.1 °F 59% 29.83 in 10.0 mi SSE 12.7 mph 20.7 mph N/A   Clear
6:53 PM 82.9 °F 86.5 °F 69.1 °F 63% 29.83 in 10.0 mi SSE 8.1 mph - N/A   Clear
7:53 PM 81.0 °F 83.8 °F 68.0 °F 65% 29.84 in 10.0 mi South 9.2 mph - N/A   Clear
8:53 PM 80.1 °F 82.9 °F 69.1 °F 69% 29.85 in 10.0 mi South 13.8 mph 18.4 mph N/A   Clear
9:53 PM 80.1 °F 82.9 °F 69.1 °F 69% 29.86 in 10.0 mi South 9.2 mph - N/A   Clear
10:53 PM 80.1 °F 82.9 °F 69.1 °F 69% 29.87 in 10.0 mi South 11.5 mph 20.7 mph N/A   Clear
11:53 PM 79.0 °F - 69.1 °F 72% 29.87 in 10.0 mi South 10.4 mph - N/A   Clear